Miscellaneous Local Product
Issued by NWS Hastings, NE

Home | Current Version | Previous Version | Text Only | Print | Product List | Glossary On
Versions: 1 2 3 4 5 6 7 8 9 10 11 12 13 14 15 16 17 18 19 20 21 22 23 24 25 26 27 28 29 30 31 32 33 34 35 36 37 38 39 40 41 42 43 44 45 46 47 48 49 50
689
AXUS43 KGID 251202
MISGRI

GID CWA HOURLY WEATHER ROUNDUP
NATIONAL WEATHER SERVICE HASTINGS NE
600 AM CST SAT FEB 25 2017

NOTE: "FAIR" INDICATES FEW OR NO CLOUDS BELOW 12,000 FEET WITH NO
SIGNIFICANT WEATHER AND/OR OBSTRUCTIONS TO VISIBILITY.

...SOUTH CENTRAL NEBRASKA...

CITY           SKY/WX    TMP DP  RH WIND       PRES   REMARKS
GRAND ISLAND   CLOUDY    10   7  87 W8        30.11F WCI  -2
HASTINGS       CLOUDY    12   7  80 W7        30.12S WCI   1
KEARNEY        CLEAR     10   3  72 CALM      30.11S
ORD            CLOUDY     1  -4  79 CALM      30.08F
YORK           CLEAR     10   7  85 NW7       30.11F WCI   0
AURORA         CLOUDY    11   7  85 W6        30.11S WCI   1
LEXINGTON      CLOUDY     5   2  85 NW5       30.09S WCI  -4
HOLDREGE       CLEAR     11   7  82 W5        30.09F WCI   3
HEBRON         CLEAR     15  11  83 NW5       30.15S WCI   7

...NEBRASKA PANHANDLE...

CITY           SKY/WX    TMP DP  RH WIND       PRES   REMARKS
CHADRON        CLEAR      2  -2  83 SW9       29.97S WCI -13
ALLIANCE       FOG      -10 -14  82 SW7       29.94S VSB 1/2 WCI -25
SCOTTSBLUFF    CLOUDY    -2  -7  79 NW9       29.97S WCI -18
SIDNEY         PTCLDY     6   2  83 W9        29.95F WCI  -8

...WESTERN AND NORTH CENTRAL NEBRASKA...

CITY           SKY/WX    TMP DP  RH WIND       PRES   REMARKS
VALENTINE      CLOUDY    -1  -6  79 SW5       30.00F WCI -11
AINSWORTH      CLOUDY     5   3  91 SW5       30.02S WCI  -4
ONEILL         CLOUDY     8   6  89 W3        30.07S
BROKEN BOW     CLOUDY     4   1  88 CALM      30.05F
IMPERIAL       CLEAR     11   7  84 SW7       30.04F WCI   0
NORTH PLATTE   FOG        5   1  83 CALM      30.06F VSB 3/4
MCCOOK         CLEAR      8   6  92 W5        30.10S WCI   0

...EASTERN NEBRASKA...

CITY           SKY/WX    TMP DP  RH WIND       PRES   REMARKS
NORFOLK        CLOUDY    10   5  80 W10       30.09S WCI  -4
SO SIOUX CITY  CLOUDY    13  10  88 NW8       30.10R WCI   2
TEKAMAH        CLEAR     14   9  80 NW6       30.11R WCI   5
COLUMBUS       CLEAR     16   7  67 W5        30.11S WCI   9
ALBION         CLOUDY    10   4  77 NW6       30.09F WCI   1
OMAHA EPPLEY   PTCLDY    16  10  77 NW6       30.11R WCI   7
OFFUTT AFB     CLEAR     16  10  79 NW8       30.10S WCI   5
MILLARD        CLEAR     21  16  78 NW6       30.11S WCI  14
LINCOLN        CLOUDY    16  11  80 W6        30.14R WCI   7
NEBRASKA CITY  CLOUDY    18  12  77 NW9       30.11S WCI   6
BEATRICE       CLOUDY    17  12  82 W6        30.13S WCI   8
FALLS CITY     CLEAR     17  13  84 W7        30.12R WCI   8

...NORTHERN KANSAS...

CITY           SKY/WX    TMP DP  RH WIND       PRES   REMARKS
GOODLAND       CLOUDY    20  16  84 SW12      30.05S WCI   8
HILL CITY      CLEAR      9   6  88 W7        30.14S WCI  -2
PHILLIPSBURG   CLEAR     10   9  92 W3        30.15S
SMITH CENTER   CLEAR     12   9  85 W3        30.16S
HAYS           CLEAR      8   5  87 W7        30.17S WCI  -3
RUSSELL        CLEAR      9   5  84 W6        30.15S WCI  -1
CONCORDIA      CLEAR     15  11  83 W10       30.16R WCI   2
SALINA         CLEAR     19  13  77 W10       30.20R WCI   7
TOPEKA         CLEAR     21  17  84 W8        30.16R WCI  11



USA.gov is the U.S. government's official web portal to all federal, state and local government web resources and services.